Date String (YYYY-MM-DD hh:mm:ss) UTC,Instrument flags,absolute air pressure of the measurement (hPa),sample flow rate (lpm),inlet stack bypass flow (lpm),air temperature of the measurement (°C),ambient temperature measured by the external sensor (°C),aerosol sample conditioner tube jacket temperature (°C),OPC LED temperature (°C),internal box temperature (°C),relative humidity of the measurement (%),span deviation,mass concentration of particles derived from Lorenz-Mie calculation of OPC scattering (μg/m³),mass concentration of particles derived from Lorenz-Mie calculation of OPC scattering (μg/m³),mass concentration of particles derived from Lorenz-Mie calculation of OPC scattering (μg/m³)
DateTimeUTC,F1_M11,P_M11,Q1_M11,Q2_M11,T1_M11,T2_M11,T3_M11,T4_M11,T5_M11,U1_M11,ZSPAN_M11,X0_M11,X2_M11,X1_M11
2023-12-09 00:00:00,SystemResetWarning,0822.8,5.01,000.00,021.8,020.8,000.0,030.2,023.1,15.3,0000.0,0009.37,0003.04,0002.00
2023-12-09 00:01:00,SystemResetWarning,0822.9,5.01,000.00,021.8,020.7,000.0,030.2,023.1,15.3,0000.0,0009.23,0003.05,0001.98
2023-12-09 00:02:00,SystemResetWarning,0823.3,5.01,000.00,021.8,020.7,000.0,030.2,023.1,15.3,0000.0,0009.13,0002.99,0001.97
2023-12-09 00:03:00,SystemResetWarning,0822.9,4.99,000.00,021.8,020.7,000.0,030.2,023.1,15.3,0000.0,0008.78,0002.99,0001.96
2023-12-09 00:04:00,SystemResetWarning,0822.9,5.00,000.00,021.8,020.8,000.0,030.2,023.0,15.3,0000.0,0008.46,0002.92,0001.95
2023-12-09 00:05:00,SystemResetWarning,0823.1,5.00,000.00,021.8,020.8,000.0,030.2,023.1,15.3,0000.0,0008.25,0002.90,0001.93
2023-12-09 00:06:00,SystemResetWarning,0822.8,5.00,000.00,021.8,020.8,000.0,030.2,023.0,15.3,0000.0,0007.47,0002.83,0001.92
2023-12-09 00:07:00,SystemResetWarning,0822.9,5.00,000.00,021.8,020.8,000.0,030.2,023.1,15.3,0000.0,0008.11,0002.87,0001.94
2023-12-09 00:08:00,SystemResetWarning,0823.1,5.01,000.00,021.8,020.8,000.0,030.2,023.0,15.3,0000.0,0007.83,0002.89,0001.94
2023-12-09 00:09:00,SystemResetWarning,0823.0,5.02,000.00,021.8,020.8,000.0,030.2,023.0,15.2,0000.0,0007.43,0002.90,0001.94
2023-12-09 00:10:00,SystemResetWarning,0822.9,4.99,000.00,021.8,020.8,000.0,030.2,023.0,15.2,0000.0,0007.41,0002.92,0001.95
2023-12-09 00:11:00,SystemResetWarning,0823.0,4.98,000.00,021.8,020.8,000.0,030.2,023.0,15.2,0000.0,0007.30,0002.87,0001.95
2023-12-09 00:12:00,SystemResetWarning,0822.9,5.00,000.00,021.8,020.8,000.0,030.2,023.0,15.2,0000.0,0007.19,0002.82,0001.95
2023-12-09 00:13:00,SystemResetWarning,0822.9,5.01,000.00,021.7,020.8,000.0,030.2,023.0,15.3,0000.0,0007.18,0002.85,0001.96
2023-12-09 00:14:00,SystemResetWarning,0822.9,5.01,000.00,021.7,020.8,000.0,030.2,023.0,15.2,0000.0,0008.36,0003.10,0002.00
2023-12-09 00:15:00,SystemResetWarning,0822.9,4.98,000.00,021.7,020.8,000.0,030.2,022.9,15.2,0000.0,0009.33,0003.36,0002.07
2023-12-09 00:16:00,SystemResetWarning,0823.0,4.99,000.00,021.7,020.8,000.0,030.1,023.0,15.2,0000.0,0010.78,0003.48,0002.10
2023-12-09 00:17:00,SystemResetWarning,0823.0,5.01,000.00,021.7,020.8,000.0,030.1,022.9,15.2,0000.0,0011.31,0003.52,0002.09
2023-12-09 00:18:00,SystemResetWarning,0823.0,5.01,000.00,021.7,020.8,000.0,030.1,023.0,15.2,0000.0,0011.05,0003.51,0002.07
2023-12-09 00:19:00,SystemResetWarning,0823.0,5.00,000.00,021.7,020.8,000.0,030.1,023.0,15.2,0000.0,0011.53,0003.48,0002.06
2023-12-09 00:20:00,SystemResetWarning,0823.0,4.99,000.00,021.7,020.8,000.0,030.1,023.0,15.2,0000.0,0011.73,0003.46,0002.06
2023-12-09 00:21:00,SystemResetWarning,0823.1,4.99,000.00,021.7,020.8,000.0,030.1,022.9,15.2,0000.0,0011.66,0003.42,0002.04
2023-12-09 00:22:00,SystemResetWarning,0823.0,5.00,000.00,021.7,020.8,000.0,030.1,023.0,15.2,0000.0,0011.67,0003.43,0002.03
2023-12-09 00:23:00,SystemResetWarning,0823.1,5.00,000.00,021.7,020.8,000.0,030.1,022.9,15.1,0000.0,0011.59,0003.43,0002.03
2023-12-09 00:24:00,SystemResetWarning,0823.1,5.00,000.00,021.7,020.7,000.0,030.1,022.9,15.1,0000.0,0011.53,0003.41,0002.02
2023-12-09 00:25:00,SystemResetWarning,0823.1,5.00,000.00,021.7,020.7,000.0,030.1,022.9,15.1,0000.0,0010.56,0003.27,0001.98
2023-12-09 00:26:00,SystemResetWarning,0823.1,5.00,000.00,021.7,020.7,000.0,030.1,022.9,15.1,0000.0,0009.14,0002.93,0001.93
2023-12-09 00:27:00,SystemResetWarning,0823.2,4.99,000.00,021.7,020.6,000.0,030.1,022.9,15.1,0000.0,0007.59,0002.66,0001.89
2023-12-09 00:28:00,SystemResetWarning,0823.2,5.01,000.00,021.6,020.6,000.0,030.1,022.9,15.1,0000.0,0006.90,0002.59,0001.88
2023-12-09 00:29:00,SystemResetWarning,0823.3,5.01,000.00,021.6,020.6,000.0,030.1,022.9,15.0,0000.0,0007.47,0002.57,0001.89
2023-12-09 00:30:00,SystemResetWarning,0823.3,5.00,000.00,021.6,020.7,000.0,030.1,022.9,15.0,0000.0,0007.22,0002.58,0001.89
2023-12-09 00:31:00,SystemResetWarning,0823.3,5.00,000.00,021.6,020.7,000.0,030.1,022.9,15.0,0000.0,0006.56,0002.58,0001.87
2023-12-09 00:32:00,SystemResetWarning,0823.3,4.99,000.00,021.6,020.6,000.0,030.0,022.9,15.0,0000.0,0006.99,0002.59,0001.87
2023-12-09 00:33:00,SystemResetWarning,0823.3,4.99,000.00,021.6,020.6,000.0,030.0,022.9,14.9,0000.0,0007.18,0002.59,0001.88
2023-12-09 00:34:00,SystemResetWarning,0823.4,5.01,000.00,021.6,020.6,000.0,030.0,022.9,14.9,0000.0,0007.50,0002.58,0001.87
2023-12-09 00:35:00,SystemResetWarning,0823.4,5.01,000.00,021.6,020.6,000.0,030.0,022.8,14.9,0000.0,0007.83,0002.60,0001.87
2023-12-09 00:36:00,SystemResetWarning,0823.4,5.01,000.00,021.6,020.6,000.0,030.0,022.9,15.0,0000.0,0007.77,0002.56,0001.87
2023-12-09 00:37:00,SystemResetWarning,0823.4,5.00,000.00,021.6,020.6,000.0,030.0,022.8,14.9,0000.0,0007.93,0002.57,0001.86
2023-12-09 00:38:00,SystemResetWarning,0823.4,5.00,000.00,021.6,020.6,000.0,030.0,022.9,14.8,0000.0,0008.63,0002.58,0001.85
2023-12-09 00:39:00,SystemResetWarning,0823.4,4.99,000.00,021.6,020.6,000.0,030.0,022.9,15.0,0000.0,0008.82,0002.52,0001.83
2023-12-09 00:40:00,SystemResetWarning,0823.4,5.00,000.00,021.6,020.6,000.0,030.0,022.8,15.0,0000.0,0008.12,0002.48,0001.80
2023-12-09 00:41:00,SystemResetWarning,0823.5,5.01,000.00,021.6,020.5,000.0,030.0,022.9,15.0,0000.0,0008.01,0002.49,0001.78
2023-12-09 00:42:00,SystemResetWarning,0823.5,5.01,000.00,021.5,020.5,000.0,030.0,022.8,14.9,0000.0,0007.83,0002.46,0001.76
2023-12-09 00:43:00,SystemResetWarning,0823.5,5.00,000.00,021.5,020.5,000.0,030.0,022.8,14.9,0000.0,0007.92,0002.49,0001.74
2023-12-09 00:44:00,SystemResetWarning,0823.6,5.00,000.00,021.5,020.5,000.0,030.0,022.7,15.1,0000.0,0008.20,0002.46,0001.71
2023-12-09 00:45:00,SystemResetWarning,0823.6,4.99,000.00,021.5,020.4,000.0,030.0,022.7,15.3,0000.0,0008.99,0002.43,0001.69
2023-12-09 00:46:00,SystemResetWarning,0823.6,4.99,000.00,021.5,020.4,000.0,030.0,022.7,15.5,0000.0,0008.64,0002.45,0001.68
2023-12-09 00:47:00,SystemResetWarning,0823.7,5.01,000.00,021.5,020.4,000.0,029.9,022.6,15.8,0000.0,0009.36,0002.49,0001.65
2023-12-09 00:48:00,SystemResetWarning,0823.8,5.01,000.00,021.4,020.3,000.0,029.9,022.6,16.1,0000.0,0009.41,0002.50,0001.62
2023-12-09 00:49:00,SystemResetWarning,0823.8,5.00,000.00,021.4,020.3,000.0,029.9,022.6,16.2,0000.0,0008.89,0002.49,0001.60
2023-12-09 00:50:00,SystemResetWarning,0823.8,4.99,000.00,021.4,020.3,000.0,029.9,022.5,16.3,0000.0,0009.47,0002.53,0001.57
2023-12-09 00:51:00,SystemResetWarning,0823.8,5.00,000.00,021.4,020.3,000.0,029.9,022.5,16.6,0000.0,0009.68,0002.54,0001.55
2023-12-09 00:52:00,SystemResetWarning,0823.8,4.99,000.00,021.4,020.3,000.0,029.9,022.6,17.0,0000.0,0009.55,0002.46,0001.53
2023-12-09 00:53:00,SystemResetWarning,0823.8,5.00,000.00,021.4,020.3,000.0,029.9,022.5,17.5,0000.0,0009.32,0002.43,0001.52
2023-12-09 00:54:00,SystemResetWarning,0823.9,5.00,000.00,021.3,020.3,000.0,029.9,022.5,17.8,0000.0,0009.20,0002.41,0001.52
2023-12-09 00:55:00,SystemResetWarning,0824.0,5.00,000.00,021.3,020.3,000.0,029.8,022.5,17.9,0000.0,0009.10,0002.44,0001.50
2023-12-09 00:56:00,SystemResetWarning,0824.0,5.00,000.00,021.3,020.3,000.0,029.8,022.5,18.2,0000.0,0008.00,0002.46,0001.50
2023-12-09 00:57:00,SystemResetWarning,0824.0,5.00,000.00,021.3,020.2,000.0,029.8,022.5,18.4,0000.0,0007.91,0002.42,0001.49
2023-12-09 00:58:00,SystemResetWarning,0824.0,5.00,000.00,021.3,020.2,000.0,029.8,022.4,18.6,0000.0,0007.57,0002.37,0001.49
2023-12-09 00:59:00,SystemResetWarning,0824.1,5.00,000.00,021.2,020.2,000.0,029.8,022.4,18.7,0000.0,0008.23,0002.34,0001.48
